Hilo, HI

11:39 PM HST on February 12, 2016 (GMT -1000)
Hilo International

Weather History for PHTO - January, 2014

Change the Weather History Date:

Saturday, January 4, 2014

  Actual Average Record
Temperature  
Mean Temperature 72 °F 72 °F  
Max Temperature 77 °F 79 °F 85 °F (2002)
Min Temperature 66 °F 64 °F 60 °F (1999)
Degree Days  
Heating Degree Days 0 0  
Month to date heating degree days 0 0  
Since 1 July heating degree days 0 0  
Cooling Degree Days 7 7  
Month to date cooling degree days 31 28  
Year to date cooling degree days 31 28  
Growing Degree Days 20 (Base 50)    
Moisture  
Dew Point 63 °F    
Average Humidity 79    
Maximum Humidity 93    
Minimum Humidity 64    
Precipitation  
Precipitation 0.01 in 0.28 in 1.71 in (1952)
Month to date precipitation 0.02 1.12  
Year to date precipitation 0.02 1.12  
Snow  
Snow 0.00 in - - ()
Month to date snowfall 0.0  
Since 1 July snowfall 0.0  
Snow Depth 0.00 in    
Sea Level Pressure  
Sea Level Pressure 29.91 in    
Wind  
Wind Speed 11 mph (NNW)    
Max Wind Speed 20 mph    
Max Gust Speed 24 mph    
Visibility 10 miles    
Events Rain    
T = Trace of Precipitation, MM = Missing Value Source: NWS Daily Summary

Daily Weather History Graph

Daily Weather History Graph

Search for Another Location

Airport or City:

Trip Planner

Search our weather history database for the weather conditions in past years. The results will help you decide how hot, cold, wet, or windy it might be!

Date:

Astronomy

Jan. 04, 2014 Rise Set
Actual Time 6:55 AM HST 5:54 PM HST
Civil Twilight 6:31 AM HST 6:18 PM HST
Nautical Twilight 6:04 AM HST 6:46 PM HST
Astronomical Twilight 5:37 AM HST 7:13 PM HST
Moon 9:41 AM HST (1/4) 9:49 PM HST (1/4)
Length of Visible Light 11h 46m
Length of Day
10h 59m
Waxing Crescent, 17% of the Moon is Illuminated
Jan 4
Waxing Crescent
Jan 7
First Quarter
Jan 15
Full
Jan 23
Last Quarter
Jan 30
New

Hourly Weather History & Observations

Time (HST) Temp. Dew Point Humidity Pressure Visibility Wind Dir Wind Speed Gust Speed Precip Events Conditions
12:53 AM 70.0 °F 63.0 °F 78% 29.87 in 10.0 mi North 13.8 mph 20.7 mph N/A   Overcast
1:53 AM 71.1 °F 61.0 °F 70% 29.86 in 10.0 mi North 15.0 mph - N/A   Overcast
2:53 AM 71.1 °F 61.0 °F 70% 29.85 in 10.0 mi North 10.4 mph 18.4 mph N/A   Overcast
3:53 AM 71.1 °F 60.1 °F 68% 29.86 in 10.0 mi NNW 11.5 mph - N/A   Overcast
4:53 AM 70.0 °F 62.1 °F 76% 29.87 in 10.0 mi NNW 13.8 mph - N/A   Overcast
5:53 AM 70.0 °F 62.1 °F 76% 29.88 in 10.0 mi North 8.1 mph - N/A   Overcast
6:53 AM 70.0 °F 61.0 °F 73% 29.89 in 10.0 mi North 13.8 mph - N/A   Overcast
7:53 AM 69.1 °F 63.0 °F 81% 29.92 in 10.0 mi NNE 9.2 mph - N/A   Mostly Cloudy
8:53 AM 71.1 °F 63.0 °F 75% 29.94 in 10.0 mi NNW 15.0 mph - N/A   Mostly Cloudy
9:53 AM 73.0 °F 62.1 °F 68% 29.95 in 10.0 mi NNW 10.4 mph - N/A   Mostly Cloudy
10:53 AM 73.0 °F 63.0 °F 71% 29.94 in 10.0 mi NNE 15.0 mph - N/A   Mostly Cloudy
11:53 AM 75.9 °F 63.0 °F 64% 29.91 in 10.0 mi North 12.7 mph - N/A   Mostly Cloudy
12:53 PM 73.0 °F 64.9 °F 76% 29.89 in 10.0 mi North 12.7 mph 20.7 mph N/A   Mostly Cloudy
1:53 PM 69.1 °F 64.9 °F 87% 29.88 in 10.0 mi North 17.3 mph - N/A   Overcast
2:53 PM 66.9 °F 64.9 °F 93% 29.89 in 10.0 mi North 11.5 mph - 0.00 in   Overcast
3:53 PM 68.0 °F 64.0 °F 87% 29.90 in 10.0 mi NNW 10.4 mph - N/A   Overcast
4:53 PM 68.0 °F 63.0 °F 84% 29.91 in 10.0 mi North 9.2 mph - N/A   Overcast
5:53 PM 66.9 °F 63.0 °F 87% 29.93 in 10.0 mi SW 4.6 mph - N/A   Overcast
6:53 PM 69.1 °F 62.1 °F 78% 29.94 in 10.0 mi NNW 8.1 mph - N/A   Overcast
7:53 PM 68.0 °F 62.1 °F 81% 29.95 in 10.0 mi SW 3.5 mph - N/A   Overcast
8:53 PM 69.1 °F 63.0 °F 81% 29.97 in 10.0 mi NNW 13.8 mph - N/A   Overcast
9:53 PM 66.9 °F 64.0 °F 90% 29.97 in 10.0 mi North 3.5 mph - 0.01 in   Overcast
10:53 PM 68.0 °F 64.0 °F 87% 29.97 in 10.0 mi Calm Calm - N/A   Overcast
11:53 PM 66.9 °F 66.0 °F 97% 29.96 in 7.0 mi NNE 10.4 mph - 0.00 in Rain Light Rain